Hourly Data Report for March 07, 2011

HALIFAX STANFIELD INT'L A
NOVA SCOTIA

44°52'48.060" N
63°30'00.050" W
145.40 m
8202250
71395
YHZ

Download Data

Hourly Data (March 2011)
Hourly Data Report for March 7, 2011
TIME
LST
Temp Definition
°C
Dew Point Definition
°C
Rel Hum Definition
%
Precip. Amount Definition
mm

Wind Dir Definition
10's deg

Wind Spd Definition
km/h
Visibility Definition
km
Stn Press Definition
kPa
Hmdx Definition


Wind Chill Definition


Weather Definition


00:00 5.6 5.0 96   19 24 9.7 100.51     Rain Showers, Fog
01:00 5.8 4.9 94   19 24 9.7 100.46     Rain Showers, Fog
02:00 5.6 4.6 93   18 24 16.1 100.42     Rain Showers
03:00 5.5 4.4 93   19 30 24.1 100.36     Cloudy
04:00 5.4 3.6 88   19 32 24.1 100.25     Cloudy
05:00 5.1 2.9 86   17 17 24.1 100.24     Cloudy
06:00 7.2 3.7 78   18 35 24.1 100.18     Cloudy
07:00 7.2 3.6 78   18 41 24.1 100.13     Cloudy
08:00 7.7 3.8 76   17 43 24.1 100.10     Cloudy
09:00 8.4 4.8 78   17 46 24.1 100.07     Cloudy
10:00 7.9 5.1 82   16 44 24.1 100.04     Cloudy
11:00 8.3 6.3 87   16 41 24.1 99.94     Rain Showers
12:00 9.0 7.8 92   16 44 8.0 99.81     Rain Showers, Fog
13:00 8.3 7.4 94   17 54 4.0 99.66     Rain, Fog
14:00 7.8 7.0 95   17 43 4.8 99.54     Rain Showers, Fog
15:00 7.4 6.5 94   17 57 3.2 99.47     Rain, Fog
16:00 7.3 6.4 94   18 54 4.8 99.45     Rain, Fog
17:00 7.5 6.8 95   18 48 2.4 99.44     Rain, Fog
18:00 7.4 6.9 97   18 56 1.6 99.41     Rain, Fog
19:00 7.7 7.2 97   18 48 3.2 99.33     Rain, Fog
20:00 7.6 7.2 97   18 41 3.2 99.31     Moderate Rain, Fog
21:00 7.6 7.2 97   17 32 4.8 99.29     Rain, Fog
22:00 8.1 7.5 96   17 33 2.4 99.20     Rain, Fog
23:00 5.3 4.8 97   18 30 6.4 99.21     Drizzle, Fog

Notes on Data Quality.

Legend

  • E = Estimated
  • M = Missing
  • NA = Not Available*
  • [empty] = Indicates an unobserved value
Date modified: